sat.trackr.live / text

‹ back to catalog

SHIYAN-24C 03

NORAD 58652 · 2023-206C

PAYLOAD ACTIVE UNKNOWN

§ Identity

Operator
Country
PRC
Launch date
2023-12-25
Launch site
SCSLA
Launch vehicle
Mass (kg)
RCS (m²)

External: N2YO · Heavens-Above · Gunter

§ Orbital elements

Epoch: 2026-09-21T13:55:21.085824Z

Period
96.12 min
Inclination
97.7273°
Eccentricity
0.0004750
Mean motion
14.98084960 rev/d
Perigee alt
569.5 km
Apogee alt
576.1 km
Semi-major
6,951.0 km
B*
1.5355e-4
RAAN
227.6844°
Arg perigee
115.2387°
Mean anomaly
244.9328°
Rev number
14,973

§ Raw data

SHIYAN-24C 031 58652U 23206C   26264.58010516  .00001758  00000+0  15355-3 0  99972 58652  97.7273 227.6844 0004750 115.2387 244.9328 14.98084960149734

JSON: /api/v1/satellites/58652 · /tle

For live sub-satellite position, see the globe view (requires WebGL).

§ Visibility from observer

Set your observer location to see the next 7 days of passes ≥ 10°. The values pass through the URL so the page stays shareable.

No JS? Fill the form by hand. The geolocation button needs JavaScript.